Regional Weather Roundup
Issued by NWS

Home | Current Version | Previous Version | Text Only | Print | Product List | Glossary On
Versions: 1 2 3 4 5 6 7 8 9 10 11 12 13 14 15 16 17 18 19 20 21 22 23 24 25 26 27 28 29 30 31 32 33 34 35 36 37 38 39 40 41 42 43 44 45 46 47 48 49 50
000
ASUS44 KFWD 270815
RWRTX
NORTH TEXAS HOURLY WEATHER ROUNDUP
NATIONAL WEATHER SERVICE FORT WORTH TX
300 AM CDT FRI MAR 27 2015

NOTE: "FAIR" INDICATES FEW OR NO CLOUDS BELOW 12,000 FEET WITH NO
SIGNIFICANT WEATHER AND/OR OBSTRUCTIONS TO VISIBILITY.

TXZ118-119-270900-
DALLAS/FORT WORTH METROPLEX

CITY           SKY/WX    TMP DP  RH WIND       PRES   REMARKS
DFW AIRPORT    FAIR      46  35  65 SW8       30.09F
DALLAS LOVE    CLEAR     51  36  56 CALM      30.11F
FTW MEACHAM    CLEAR     48  37  65 SW3       30.11F
DAL-EXECUTIVE  CLEAR     45  33  63 SW5       30.10F
FTW-ALLIANCE   CLEAR     41  35  79 SW6       30.10F WCI  37
FTW-SPINKS     CLEAR     43  37  78 SW6       30.13F WCI  39
ARLINGTON      CLEAR     44  36  73 CALM      30.11F
ADDISON        CLEAR     50  35  55 CALM      30.11F
MESQUITE       CLEAR     47  35  61 SW3       30.11F
LANCASTER      CLEAR     44  34  69 CALM      30.12F
$$

TXZ091>094-102>105-117-120-121-131>134-270900-
NORTH CENTRAL TEXAS

CITY           SKY/WX    TMP DP  RH WIND       PRES   REMARKS
SHRMAN/DENISON CLEAR     46  39  79 S6        30.09F
GAINESVILLE    CLEAR     45  35  68 W5        30.11F
BOWIE          CLEAR     47  35  63 SW5       30.10F
BRIDGEPORT     CLEAR     45  38  75 SW8       30.13F
DECATUR        CLEAR     46  34  61 SW7       30.10F
DENTON         CLEAR     44  35  70 W3        30.10F
MCKINNEY       CLEAR     45  35  68 S3        30.09F
GREENVILLE     CLEAR     46  34  61 W5        30.10F
ROCKWALL       CLEAR     49  40  71 SW3       30.09F
TERRELL        CLEAR     45  36  70 SW3       30.11F
WAXAHACHIE     CLEAR     45  37  71 W3        30.13F
CLEBURNE       CLEAR     45  37  76 W5        30.15S
GRANBURY         N/A     47  37  66 CALM      30.15F
$$

TXZ083>090-098>101-113>116-127>130-139>142-154-155-270900-
WESTERN NORTH TEXAS

CITY           SKY/WX    TMP DP  RH WIND       PRES   REMARKS
WICHITA FALLS  CLEAR     48  36  63 SW14      30.09F
WF-KICKAPOO    CLEAR     50  36  59 SW8       30.11F
VERNON         FAIR      44  31  59 SW10      30.11F WCI  39
ABILENE        CLEAR     43  31  62 S6        30.16F WCI  39
ABILENE-DYESS  CLEAR     44  31  60 SW7       30.14F
BRECKENRIDGE   CLEAR     45  34  66 SW6       30.13F
GRAHAM         CLEAR     43  36  76 CALM      30.12F
MINERAL WELLS  CLEAR     44  36  73 CALM      30.12F
STEPHENVILLE   CLEAR     44  36  72 CALM      30.17F
COMANCHE       CLEAR     48  34  60 SW7       30.17F
BROWNWOOD      PTCLDY    37  36  93 CALM      30.18F
COLEMAN        CLEAR     45  33  64 SW7       30.18F
BRADY          CLEAR     43  34  70 SW3       30.18F
$$

TXZ143>147-156>162-174-175-270900-
CENTRAL TEXAS

CITY           SKY/WX    TMP DP  RH WIND       PRES   REMARKS
WACO           CLEAR     41  37  86 SW7       30.15F WCI  36
WACO-MCGREGOR  CLEAR     43  32  65 W5        30.16F
HILLSBORO      CLEAR     40  35  82 CALM      30.13F
CORSICANA      CLEAR     45  37  73 W5        30.14F
MEXIA          CLEAR     46  37  68 W6        30.13F
HEARNE         CLEAR     44  39  84 CALM      30.17F
CAMERON        CLEAR     47  38  70 CALM      30.16F
TEMPLE         CLEAR     45  34  65 W7        30.15F
KILLEEN        CLEAR     48  34  58 W5        30.16F
KILLEEN-SKYLRK CLEAR     46  32  57 MISG      30.15F
FORT HOOD      CLEAR     49  35  57 W3        30.15F
GATESVILLE     CLEAR     45  36  70 CALM      30.18F
HAMILTON       CLEAR     45  34  67 SW5       30.17F
$$

TXZ095>097-106>112-122>126-135>138-148>153-164>167-270900-
EAST TEXAS

CITY           SKY/WX    TMP DP  RH WIND       PRES   REMARKS
SULPHUR SPRNGS CLEAR     43  35  74 SW8       30.11F WCI  38
MOUNT PLEASANT CLEAR     42  36  79 W5        30.10S WCI  39
GILMER         CLEAR     40  37  87 CALM      30.08F
MINEOLA        CLEAR     43  37  81 CALM      30.11S
TYLER          CLEAR     43  35  73 CALM      30.10F
LONGVIEW       CLEAR     42  35  76 S5        30.08F WCI  39
MARSHALL       CLEAR     46  41  85 CALM      30.10F
ATHENS         CLEAR     41  34  75 CALM      30.11F
PALESTINE      CLEAR     38  32  78 CALM      30.12F
JACKSONVILLE   CLEAR     48  32  53 CALM      30.12F
HENDERSON      CLEAR     40  36  86 CALM      30.11F
NACOGDOCHES    CLEAR     45  34  65 N5        30.11F
LUFKIN         CLEAR     48  38  68 CALM      30.11F
$$

SUPPLEMENTAL OBSERVATIONS (CENTRAL)

CITY           SKY/WX    TMP DP  RH WIND       PRES   REMARKS
LAKE TEXOMA      N/A     48  32  53 SW10        N/A
CADDO GRASSLND   N/A     43  36  75 S3          N/A
PAT MAYSE LAKE   N/A     46  37  71 SE5         N/A
GREENVILLE       N/A     43  34  70 SW5         N/A
CEDAR HILL       N/A     45  32  61 S3          N/A
ATHENS           N/A     41  36  81 NW1         N/A
LAKE LIMESTONE   N/A     46  37  71 W5          N/A
MCGREGOR         N/A     43  36  75 S2          N/A
TEMPLE           N/A     48  34  57 W6          N/A
$$

SUPPLEMENTAL OBSERVATIONS (WEST)

CITY           SKY/WX    TMP DP  RH WIND       PRES   REMARKS
MILLERS CREEK    N/A     39  34  81 SW6         N/A  WCI  35
POSSUM KINGDOM   N/A     46  32  57 S5          N/A
LBJ GRASSLAND    N/A     45  34  65 SW3         N/A
GRANBURY         N/A     46  36  66 CALM        N/A
COMANCHE         N/A     48  30  49 SW6         N/A
HAMBY            N/A     39  32  75 S8          N/A  WCI  34
IVIE RESERVOIR   N/A     45  32  61 SW2         N/A
COLORADO BEND    N/A     45  32  61 W3          N/A
$$

SUPPLEMENTAL OBSERVATIONS (EAST)

CITY           SKY/WX    TMP DP  RH WIND       PRES   REMARKS
TEXARKANA        N/A     37  34  87 CALM        N/A
LINDEN           N/A     41  36  81 CALM        N/A
CADDO LAKE       N/A     37  36  93 E1          N/A
GILMER           N/A     41  36  81 CALM        N/A
HENDERSON        N/A     41  32  70 S2          N/A
N SABINE NF      N/A     41  39  93 MISG        N/A
$$

SUPPLEMENTAL OBSERVATIONS ARE A COLLECTION OF AUTOMATED INSTRUMENTS
THAT ARE MAINTAINED BY A VARIETY OF FEDERAL AND STATE AGENCIES.
CERTAIN ELEMENTS...SUCH AS HUMIDITY VALUES AND SUSTAINED WIND
SPEEDS...MAY BE APPROXIMATED.




USA.gov is the U.S. government's official web portal to all federal, state and local government web resources and services.